Tracking 31027 objects as of 19-Jul-2025
HD Live streaming from Space Station
objects crossing your sky now

STARLINK-32409

Track STARLINK-32409 now!
10-day predictions
STARLINK-32409 is classified as:


NORAD ID: 61591
Int'l Code: 2024-187T
Perigee: 453.1 km
Apogee: 455.8 km
Inclination: 53.2 °
Period: 93.5 minutes
Semi major axis: 6825 km
RCS: Unknown
Launch date: October 18, 2024
Source: United States (US)
Launch site: AIR FORCE EASTERN TEST RANGE (AFETR)
Your satellite tracking list
COSMOS 2251 DEB
Track 1 satellite(s)




NASA's NSSDC Master Catalog

Two Line Element Set (TLE):
1 61591U 24187T   25199.61398805  .00003491  00000-0  97309-4 0  9999
2 61591  53.1605  66.7409 0001956 121.2604 238.8593 15.39594931 43322
Source of the keplerian elements: AFSPC